Weather History for Bastrop, LA

Change the Weather History Date:

Saturday, May 25, 2013

  Actual Average (KMLU) Record (KMLU)
Temperature  
Mean Temperature 74 °F 76 °F  
Max Temperature 86 °F 88 °F 95 °F (1963)
Min Temperature 63 °F 65 °F 53 °F (1935)
Degree Days  
Heating Degree Days 0 0  
Month to date heating degree days 3  
Since 1 July heating degree days 2227  
Cooling Degree Days 10 11  
Month to date cooling degree days 215  
Year to date cooling degree days 362  
Growing Degree Days 24 (Base 50)    
Moisture  
Dew Point 59 °F    
Average Humidity 62    
Maximum Humidity 86    
Minimum Humidity 42    
Precipitation  
Precipitation 0.00 in 0.16 in 2.32 in (1969)
Month to date precipitation 4.21  
Year to date precipitation 23.07  
Snow  
Snow 0.00 in - - ()
Month to date snowfall  
Since 1 July snowfall  
Snow Depth -    
Sea Level Pressure  
Sea Level Pressure 30.20 in    
Wind  
Wind Speed 0 mph (East)    
Max Wind Speed 5 mph    
Max Gust Speed -    
Visibility 10 miles    
Events      
T = Trace of Precipitation, MM = Missing Value Source: NWS Daily Summary

Daily Weather History Graph

Daily Weather History Graph

Search for Another Location

Airport:

Trip Planner

Search our weather history database for the weather conditions in past years. The results will help you decide how hot, cold, wet, or windy it might be!

Date:

Astronomy

May. 25, 2013 Rise Set
Actual Time 6:02 AM CDT 8:06 PM CDT
Civil Twilight 5:35 AM CDT 8:34 PM CDT
Nautical Twilight 5:01 AM CDT 9:08 PM CDT
Astronomical Twilight 4:25 AM CDT 9:44 PM CDT
Moon 8:55 PM CDT (5/25) 6:29 AM CDT (5/25)
Length of Visible Light 14h 59m
Length of Day
14h 03m
Full, 100% of the Moon is Illuminated
May 25
Full
May 31
Last Quarter
Jun 8
New
Jun 16
First Quarter
Jun 23
Full

Hourly Weather History & Observations

Time (CDT) Temp. Heat Index Dew Point Humidity Pressure Visibility Wind Dir Wind Speed Gust Speed Precip Events Conditions
12:15 AM 63.9 °F - 59.5 °F 86% 30.20 in 10.0 mi Calm Calm - N/A   Clear
12:35 AM 64.4 °F - 58.5 °F 81% 30.19 in 10.0 mi Calm Calm - N/A   Clear
12:55 AM 65.3 °F - 57.7 °F 76% 30.20 in 10.0 mi Calm Calm - N/A   Clear
1:15 AM 64.6 °F - 58.3 °F 80% 30.20 in 10.0 mi Calm Calm - N/A   Clear
1:35 AM 65.1 °F - 57.6 °F 76% 30.20 in 10.0 mi Calm Calm - N/A   Clear
1:55 AM 65.3 °F - 57.2 °F 75% 30.19 in 10.0 mi Calm Calm - N/A   Clear
2:15 AM 65.7 °F - 56.7 °F 73% 30.18 in 10.0 mi Calm Calm - N/A   Clear
2:35 AM 65.7 °F - 56.7 °F 73% 30.18 in 10.0 mi Calm Calm - N/A   Clear
2:55 AM 65.7 °F - 56.5 °F 72% 30.18 in 10.0 mi Calm Calm - N/A   Clear
3:15 AM 65.3 °F - 56.5 °F 73% 30.19 in 10.0 mi Calm Calm - N/A   Clear
3:35 AM 64.4 °F - 56.8 °F 76% 30.19 in 10.0 mi Calm Calm - N/A   Clear
3:55 AM 64.4 °F - 56.7 °F 76% 30.20 in 10.0 mi Calm Calm - N/A   Clear
4:15 AM 63.9 °F - 56.5 °F 77% 30.20 in 10.0 mi Calm Calm - N/A   Clear
4:35 AM 63.5 °F - 56.3 °F 77% 30.20 in 10.0 mi Calm Calm - N/A   Clear
4:55 AM 63.5 °F - 55.8 °F 76% 30.21 in 10.0 mi Calm Calm - N/A   Clear
5:15 AM 63.5 °F - 55.6 °F 75% 30.22 in 10.0 mi Calm Calm - N/A   Clear
5:35 AM 63.5 °F - 55.4 °F 75% 30.22 in 10.0 mi Calm Calm - N/A   Clear
5:55 AM 63.5 °F - 55.4 °F 75% 30.23 in 10.0 mi Calm Calm - N/A   Clear
6:15 AM 63.5 °F - 55.4 °F 75% 30.23 in 10.0 mi Calm Calm - N/A   Clear
6:35 AM 63.3 °F - 55.6 °F 76% 30.24 in 10.0 mi Calm Calm - N/A   Clear
6:55 AM 63.7 °F - 55.4 °F 74% 30.24 in 10.0 mi Calm Calm - N/A   Clear
7:15 AM 64.8 °F - 56.1 °F 74% 30.24 in 10.0 mi Calm Calm - N/A   Clear
7:35 AM 66.9 °F - 55.8 °F 67% 30.24 in 10.0 mi Calm Calm - N/A   Clear
7:55 AM 68.0 °F - 55.8 °F 65% 30.25 in 10.0 mi Calm Calm - N/A   Clear
8:15 AM 69.3 °F - 55.8 °F 62% 30.25 in 10.0 mi Calm Calm - N/A   Clear
8:35 AM 70.9 °F - 55.4 °F 58% 30.26 in 10.0 mi East 3.5 mph - N/A   Clear
8:55 AM 72.7 °F - 55.2 °F 54% 30.27 in 10.0 mi East 4.6 mph - N/A   Clear
9:15 AM 74.3 °F - 55.0 °F 51% 30.27 in 10.0 mi Calm Calm - N/A   Clear
9:35 AM 74.3 °F - 54.9 °F 51% 30.27 in 10.0 mi Calm Calm - N/A   Clear
9:55 AM 76.1 °F - 55.9 °F 50% 30.26 in 10.0 mi Calm Calm - N/A   Clear
10:15 AM 76.3 °F - 54.9 °F 47% 30.26 in 10.0 mi Calm Calm - N/A   Clear
10:35 AM 78.6 °F - 57.0 °F 47% 30.25 in 10.0 mi Calm Calm - N/A   Clear
10:55 AM 78.4 °F - 55.0 °F 44% 30.25 in 10.0 mi ESE 3.5 mph - N/A   Clear
11:15 AM 78.6 °F - 55.6 °F 45% 30.25 in 10.0 mi Calm Calm - N/A   Clear
11:35 AM 78.8 °F - 55.8 °F 45% 30.25 in 10.0 mi Calm Calm - N/A   Clear
11:55 AM 79.2 °F - 55.4 °F 44% 30.25 in 10.0 mi Calm Calm - N/A   Clear
12:15 PM 80.8 °F 80.7 °F 55.6 °F 42% 30.24 in 10.0 mi Calm Calm - N/A   Clear
12:35 PM 81.5 °F 81.4 °F 57.0 °F 43% 30.23 in 10.0 mi Calm Calm - N/A   Clear
12:55 PM 81.9 °F 81.6 °F 56.8 °F 42% 30.23 in 10.0 mi Calm Calm - N/A   Clear
1:15 PM 83.3 °F 82.9 °F 58.1 °F 42% 30.22 in 10.0 mi Calm Calm - N/A   Clear
1:35 PM 83.3 °F 83.1 °F 58.5 °F 43% 30.22 in 10.0 mi Calm Calm - N/A   Clear
1:55 PM 83.8 °F 83.8 °F 59.5 °F 44% 30.22 in 10.0 mi Calm Calm - N/A   Clear
2:15 PM 84.6 °F 84.4 °F 59.7 °F 43% 30.20 in 10.0 mi Calm Calm - N/A   Clear
2:35 PM 84.6 °F 85.0 °F 61.5 °F 46% 30.21 in 10.0 mi Calm Calm - N/A   Clear
2:55 PM 84.7 °F 85.0 °F 61.3 °F 45% 30.20 in 10.0 mi Calm Calm - N/A   Clear
3:15 PM 84.4 °F 85.2 °F 62.6 °F 48% 30.20 in 10.0 mi Calm Calm - N/A   Clear
3:35 PM 86.2 °F 86.8 °F 62.6 °F 45% 30.20 in 10.0 mi Calm Calm - N/A   Clear
3:55 PM 85.5 °F 86.1 °F 62.4 °F 46% 30.19 in 10.0 mi Calm Calm - N/A   Clear
4:15 PM 86.2 °F 87.1 °F 63.0 °F 46% 30.18 in 10.0 mi Calm Calm - N/A   Clear
4:35 PM 85.6 °F 86.3 °F 62.8 °F 46% 30.18 in 10.0 mi Calm Calm - N/A   Clear
4:55 PM 85.5 °F 86.3 °F 63.3 °F 47% 30.17 in 10.0 mi Calm Calm - N/A   Clear
5:15 PM 86.0 °F 86.8 °F 63.0 °F 46% 30.16 in 10.0 mi Calm Calm - N/A   Clear
5:35 PM 86.4 °F 87.0 °F 62.4 °F 45% 30.16 in 10.0 mi Calm Calm - N/A   Clear
5:55 PM 86.2 °F 86.6 °F 61.7 °F 44% 30.16 in 10.0 mi Calm Calm - N/A   Clear
6:15 PM 86.2 °F 86.8 °F 62.8 °F 45% 30.15 in 10.0 mi Calm Calm - N/A   Clear
6:35 PM 85.6 °F 86.8 °F 63.9 °F 48% 30.14 in 10.0 mi Calm Calm - N/A   Clear
6:55 PM 83.1 °F 84.6 °F 64.2 °F 53% 30.13 in 10.0 mi Calm Calm - N/A   Clear
7:15 PM 82.4 °F 84.4 °F 65.8 °F 57% 30.13 in 10.0 mi Calm Calm - N/A   Clear
7:35 PM 79.0 °F - 65.8 °F 64% 30.13 in 10.0 mi Calm Calm - N/A   Clear
7:55 PM 76.5 °F - 65.8 °F 70% 30.14 in 10.0 mi Calm Calm - N/A   Clear
8:15 PM 75.4 °F - 64.2 °F 68% 30.14 in 10.0 mi Calm Calm - N/A   Clear
8:35 PM 73.8 °F - 65.3 °F 75% 30.15 in 10.0 mi Calm Calm - N/A   Clear
8:55 PM 72.9 °F - 64.4 °F 75% 30.15 in 10.0 mi Calm Calm - N/A   Clear
9:15 PM 71.8 °F - 63.9 °F 76% 30.15 in 10.0 mi Calm Calm - N/A   Clear
9:35 PM 70.7 °F - 63.9 °F 79% 30.16 in 10.0 mi Calm Calm - N/A   Clear
9:55 PM 71.1 °F - 63.3 °F 76% 30.17 in 10.0 mi Calm Calm - N/A   Clear
10:15 PM 70.7 °F - 62.4 °F 75% 30.17 in 10.0 mi Calm Calm - N/A   Clear
10:35 PM 69.8 °F - 63.1 °F 79% 30.17 in 10.0 mi Calm Calm - N/A   Clear
10:55 PM 70.3 °F - 62.2 °F 75% 30.17 in 10.0 mi Calm Calm - N/A   Clear
11:15 PM 70.9 °F - 61.7 °F 73% 30.17 in 10.0 mi Calm Calm - N/A   Clear
11:35 PM 70.7 °F - 60.8 °F 71% 30.15 in 10.0 mi Calm Calm - N/A   Clear
11:55 PM 69.6 °F - 61.3 °F 75% 30.15 in 10.0 mi Calm Calm - N/A   Clear